OBJECT C, 64050

Orbit data source: Space-Track

You're viewing an Uncataloged Satellite

Recently launched and/or uncataloged satellites may have evolving metadata. Metadata may include but not limited to: Owner, Maufacturer, Bus, Motor, and Mission.

OBJECT C, 64050 is a Chinese satellite in SSO that was launched on Sat, 17 May 2025 UTC via a ZHUQUE-2E launch vehicle from the Jiuquan Satellite Launch Center, China (JSC). Unknown objects in Earth's orbit typically refer to objects detected orbiting the Earth but have not yet been identified or cataloged. These objects could be anything from previously untracked satellites, spent rocket stages, debris from satellite collisions, or even natural meteoroids temporarily captured by Earth's gravity.

Loading next visibility...
Identifier
64050, 2025-103C
Orbit
SSO
Country
Flag of CNCN / PRC
Related business
Manufacturer
Changsha Tianyi
Mission
Operational Amateur Imaging
Bus & Motor
TY, Unknown motor
Mass
~50 kg wet, ~50 kg dry
Launch date (UTC)
2025-05-17 (1 year ago)
Launch vehicle
ZHUQUE-2E
Launch site
Jiuquan Satellite Launch Center, China (JSC)
Object type
Unknown
Shape & HBR
Box + 2 Pan, 1.3 m
Radar Cross Section
0.255 m², Large (>1 m²)

Expand to show TLE details & history
Last TLE update: 5 hours ago

TLE from 5 hours ago
0 OBJECT C
1 64050U 25103C   26207.60376495  .00004141  00000-0  19517-3 0  9999
2 64050  97.3736 278.3641 0003324  58.1368 302.0190 15.20036613 66055
Epoch: 2026-07-26T14:29Z
TLE epoch observation values (Epoch: 2026-07-26T14:29:25.291Z)
Latitude
-0.00007°
Longitude
116.70941°
Altitude
507.608 km
Speed
7.611 km/s
True Right ascension
18h 33m 27s
True Declination
0° 00' 00"
Sunlit
Object was in full shadow at epoch
Visualization orbit readout
Latitude
Unknown
Longitude
Unknown
Altitude
Unknown
Speed
Unknown
Apparent Right ascension
Unknown
Apparent Declination
Unknown
Sunlit
N/A
Visualization observer readout
Local Sidereal Time
08:42:02
Azimuth
Unknown
Elevation
Unknown
Doppler factor
Unknown
Orbital elements
Apogee altitude
504.982 km
Perigee altitude
500.407 km
Semi-major axis
6,880.831 km
Eccentricity
0.00033
Inclination
97.3736°
RAAN
278.3641°
Arg. of periapsis
58.1368°
True anomaly
301.9867°
Mean anomaly
302.019°
Eccentric anomaly
302.00285°
Mean motion
3.80261 °/min
Orbital period
94.67 mins
BSTAR
0.00019517
Loading maneuver chart data...
Computing Atmospheric mass density...
Loading historical data...
Loading historical data...
Loading historical data...
Loading historical data...
Loading historical data...
Loading historical data...
Loading historical data...

Documentation

Showing up to 5 results
|